Weather Roundup
Issued by NWS Springfield, MO

Home | Current Version | Previous Version | Text Only | Print | Product List | Glossary On
Versions: 1 2 3 4 5 6 7 8 9 10 11 12 13 14 15 16 17 18 19 20 21 22 23 24 25 26 27 28 29 30 31 32 33 34 35 36 37 38 39 40 41 42 43 44 45 46 47 48 49 50
000
NZUS99 KSGF 060759
HRRSGF

HOURLY WEATHER
NATIONAL WEATHER SERVICE SPRINGFIELD MO
300 AM CDT MON JUL 06 2015

......SGF CWA......

CITY           SKY/WX    TMP DP  RH WIND       PRES   REMARKS
SPRINGFIELD    PTCLDY    71  68  90 S8        30.00S
JOPLIN         MOCLDY    74  69  85 S10       29.97R
WEST PLAINS    CLOUDY    72  70  93 S6        30.04S FOG
ROLLA          CLEAR     72  71  97 S9        29.98F
OSAGE BEACH    PTCLDY    72  70  94 S5        29.98R

......SURROUNDING SGF CWA......

CITY           SKY/WX    TMP DP  RH WIND       PRES   REMARKS
CHANUTE        CLOUDY    75  72  90 SE8       29.94R
PARSONS        MOCLDY    76  72  87 S6        29.95R
COFFEYVILLE    MOCLDY    75  71  87 SE7       29.93S
EMPORIA        CLOUDY    78  70  76 S13       29.89F
GROVE OK       MOCLDY    77  73  88 S7        29.98F
SILOAM SPRINGS MOCLDY    73  66  78 S7        30.01S
HARRISON AR    PTCLDY    72  70  93 S7        30.03S
NEAR YELLVILLE CLEAR     72  68  88 CALM      29.99F

......KANSAS AND MISSOURI......

CITY           SKY/WX    TMP DP  RH WIND       PRES   REMARKS
KANSAS CTY INT MOCLDY    76  70  82 S14       29.89F
DOWNTOWN KC    MOCLDY    77  68  73 S13G18    29.88F
COLUMBIA       CLEAR     73  71  93 S7        29.96F
SEDALIA        MOCLDY    74  67  78 S10       29.96S
ST JOSEPH      CLOUDY    80  71  74 S13       29.86F
ST LOUIS       CLEAR     76  68  76 S6        29.99F
SPIRIT OF STL  CLEAR     73  70  90 CALM      29.97F
KIRKSVILLE     MOCLDY    73  69  87 S7        29.94S
WICHITA        CLOUDY    80  69  69 S13       29.89S
TOPEKA         MOCLDY    80  72  76 S8        29.87F
OLATHE         MOCLDY    72  68  87 S10       29.91F

......TENNESSEE......

CITY           SKY/WX    TMP DP  RH WIND       PRES   REMARKS
MEMPHIS        CLEAR     70  67  90 S5        30.04S
NASHVILLE      CLEAR     71  71 100 SW3       30.06R

......ARKANSAS.......

CITY           SKY/WX    TMP DP  RH WIND       PRES   REMARKS
FAYETTEVILLE   MOCLDY    72  70  93 CALM      30.02S
FT SMITH       CLEAR     73  70  90 E6        29.98F THUNDER
LITTLE ROCK    CLEAR     69  64  84 S3        30.04S

......OKLAHOMA.......

CITY           SKY/WX    TMP DP  RH WIND       PRES   REMARKS
TULSA          CLOUDY    81  71  71 S9        29.93S
PONCA CITY     CLOUDY    80  69  69 S7        29.90F
MCALESTER      PTCLDY    79  71  76 S6        29.96S
OKLAHOMA CITY  MOCLDY    76  71  85 S8        29.93F

......IOWA............

CITY           SKY/WX    TMP DP  RH WIND       PRES   REMARKS
DES MOINES     CLOUDY    78  71  79 S15       29.82F THUNDER
QUAD CITIES    CLEAR     69  64  84 S6        29.96R HAZE

......ILLINOIS........

CITY           SKY/WX    TMP DP  RH WIND       PRES   REMARKS
QUINCY         PTCLDY    73  69  87 S8        29.96S FOG
CHICAGO        CLEAR     69  62  78 CALM      30.02R




USA.gov is the U.S. government's official web portal to all federal, state and local government web resources and services.